Satellite: OKEAN-4
Catalog number: 23317
Epoch time: 09364.88618362
Element set: 0114
Inclination: 082.5396 deg
RA of node: 150.9324 deg
Eccentricity: 0.0023816
Arg of perigee: 077.1166 deg
Mean anomaly: 283.2698 deg
Mean motion: 14.82752024 rev/day
Decay rate: 1.24e-06 rev/day^2
Epoch rev: 82151
Checksum: 302
Satellite: NOAA-14
Catalog number: 23455
Epoch time: 09365.41306004
Element set: 888
Inclination: 098.8936 deg
RA of node: 082.2346 deg
Eccentricity: 0.0009395
Arg of perigee: 357.0596 deg
Mean anomaly: 003.0538 deg
Mean motion: 14.13775335 rev/day
Decay rate: -5.9e-07 rev/day^2
Epoch rev: 77379
Checksum: 335
Satellite: NOAA-15
Catalog number: 25338
Epoch time: 09365.24735577
Element set: 214
Inclination: 098.6034 deg
RA of node: 350.3255 deg
Eccentricity: 0.0010289
Arg of perigee: 199.9033 deg
Mean anomaly: 160.1759 deg
Mean motion: 14.24799966 rev/day
Decay rate: 5.4e-07 rev/day^2
Epoch rev: 60483
Checksum: 331
Satellite: RESURS
Catalog number: 25394
Epoch time: 09365.71890027
Element set: 395
Inclination: 098.3190 deg
RA of node: 027.8122 deg
Eccentricity: 0.0001816
Arg of perigee: 023.8797 deg
Mean anomaly: 336.2473 deg
Mean motion: 14.24191445 rev/day
Decay rate: -3.3e-07 rev/day^2
Epoch rev: 59651
Checksum: 307
Satellite: FENGYUN1
Catalog number: 25730
Epoch time: 09364.84001038
Element set: 0937
Inclination: 098.7723 deg
RA of node: 329.3029 deg
Eccentricity: 0.0024412
Arg of perigee: 018.1978 deg
Mean anomaly: 342.0059 deg
Mean motion: 14.08157606 rev/day
Decay rate: 5.75e-06 rev/day^2
Epoch rev: 54799
Checksum: 315
Satellite: OKEAN-0
Catalog number: 25860
Epoch time: 09364.88568622
Element set: 0876
Inclination: 097.8106 deg
RA of node: 338.5196 deg
Eccentricity: 0.0000533
Arg of perigee: 063.8635 deg
Mean anomaly: 296.2625 deg
Mean motion: 14.73605444 rev/day
Decay rate: 6.5e-07 rev/day^2
Epoch rev: 56211
Checksum: 324
Satellite: NOAA-16
Catalog number: 26536
Epoch time: 09365.21060233
Element set: 693
Inclination: 099.1778 deg
RA of node: 013.6628 deg
Eccentricity: 0.0011243
Arg of perigee: 089.4637 deg
Mean anomaly: 270.7822 deg
Mean motion: 14.12543602 rev/day
Decay rate: 1.50e-06 rev/day^2
Epoch rev: 47811
Checksum: 295
Satellite: NOAA-17
Catalog number: 27453
Epoch time: 09365.15039810
Element set: 692
Inclination: 098.4586 deg
RA of node: 057.1598 deg
Eccentricity: 0.0010790
Arg of perigee: 268.6180 deg
Mean anomaly: 091.3784 deg
Mean motion: 14.24118200 rev/day
Decay rate: -2.5e-07 rev/day^2
Epoch rev: 39078
Checksum: 320
Satellite: NOAA-18
Catalog number: 28654
Epoch time: 09365.13969182
Element set: 174
Inclination: 098.9311 deg
RA of node: 307.0613 deg
Eccentricity: 0.0014468
Arg of perigee: 164.2358 deg
Mean anomaly: 195.9272 deg
Mean motion: 14.11313304 rev/day
Decay rate: -1.49e-06 rev/day^2
Epoch rev: 23773
Checksum: 314
Satellite: NOAA-19
Catalog number: 33591
Epoch time: 09365.09124009
Element set: 381
Inclination: 098.7710 deg
RA of node: 305.9458 deg
Eccentricity: 0.0014877
Arg of perigee: 047.7258 deg
Mean anomaly: 312.5149 deg
Mean motion: 14.11013667 rev/day
Decay rate: -6.0e-08 rev/day^2
Epoch rev: 4620
Checksum: 303
/EX
SB KEPS @ AMSAT $ORB09365.M
Orbital Elements 09365.MISC
HR AMSAT ORBITAL ELEMENTS FOR MANNED AND MISCELLANEOUS SATELLITES
FROM WA5QGD FORT WORTH,TX December 31, 2009
Send Subscribe/unsubscribe to KEPS at http://www.amsat.org/mailman/listinfo/keps
BID: ORB09365.M
TO ALL RADIO AMATEURS BT
Satellite: HUBBLE
Catalog number: 20580
Epoch time: 09365.14879106
Element set: 496
Inclination: 028.4713 deg
RA of node: 256.7658 deg
Eccentricity: 0.0003382
Arg of perigee: 213.8468 deg
Mean anomaly: 146.1910 deg
Mean motion: 15.00873205 rev/day
Decay rate: 3.53e-06 rev/day^2
Epoch rev: 87947
Checksum: 313
Satellite: ISS
Catalog number: 25544
Epoch time: 10001.03465100
Element set: 283
Inclination: 051.6468 deg
RA of node: 009.6669 deg
Eccentricity: 0.0007899
Arg of perigee: 132.8806 deg
Mean anomaly: 323.0995 deg
Mean motion: 15.77080624 rev/day
Decay rate: 8.979e-05 rev/day^2
Epoch rev: 63713
Checksum: 313
Satellite: CO-58
Catalog number: 28895
Epoch time: 09364.64643636
Element set: 0477
Inclination: 098.0364 deg
RA of node: 249.4756 deg
Eccentricity: 0.0018906
Arg of perigee: 093.8290 deg
Mean anomaly: 266.5132 deg
Mean motion: 14.59830682 rev/day
Decay rate: 3.27e-06 rev/day^2
Epoch rev: 22239
Checksum: 356
Satellite: FALCON
Catalog number: 30776
Epoch time: 09364.35076221
Element set: 0746
Inclination: 035.4348 deg
RA of node: 349.1235 deg
Eccentricity: 0.0000529
Arg of perigee: 227.6993 deg
Mean anomaly: 132.3678 deg
Mean motion: 15.03410163 rev/day
Decay rate: 4.81e-06 rev/day^2
Epoch rev: 15463
Checksum: 291
Satellite: MAST
Catalog number: 31126
Epoch time: 09364.77760074
Element set: 0766
Inclination: 097.9634 deg
RA of node: 050.2933 deg
Eccentricity: 0.0095151
Arg of perigee: 030.2370 deg
Mean anomaly: 330.4288 deg
Mean motion: 14.53542615 rev/day
Decay rate: 1.03e-06 rev/day^2
Epoch rev: 14359
Checksum: 287
Satellite: CAPE1
Catalog number: 31130
Epoch time: 09365.69888914
Element set: 780
Inclination: 097.9631 deg
RA of node: 048.9196 deg
Eccentricity: 0.0103332
Arg of perigee: 033.9260 deg
Mean anomaly: 326.8474 deg
Mean motion: 14.52120368 rev/day
Decay rate: 1.20e-06 rev/day^2
Epoch rev: 14335
Checksum: 301
Satellite: COMPASS
Catalog number: 32787
Epoch time: 09364.21737937
Element set: 0558
Inclination: 097.9183 deg
RA of node: 066.1305 deg
Eccentricity: 0.0016940
Arg of perigee: 114.6733 deg
Mean anomaly: 245.6255 deg
Mean motion: 14.81726149 rev/day
Decay rate: 5.11e-06 rev/day^2
Epoch rev: 09047
Checksum: 317
Satellite: AAUSAT2
Catalog number: 32788
Epoch time: 09365.72164977
Element set: 550
Inclination: 097.9177 deg
RA of node: 067.7094 deg
Eccentricity: 0.0016335
Arg of perigee: 109.8342 deg
Mean anomaly: 250.4633 deg
Mean motion: 14.81854926 rev/day
Decay rate: -2.16e-06 rev/day^2
Epoch rev: 9070
Checksum: 330
Satellite: DO-64
Catalog number: 32789
Epoch time: 09365.87631849
Element set: 567
Inclination: 097.9236 deg
RA of node: 068.1711 deg
Eccentricity: 0.0016710
Arg of perigee: 108.4571 deg
Mean anomaly: 251.8488 deg
Mean motion: 14.81907352 rev/day
Decay rate: 4.49e-06 rev/day^2
Epoch rev: 9072
Checksum: 348
Satellite: CO-66
Catalog number: 32791
Epoch time: 09364.21629805
Element set: 0546
Inclination: 097.9186 deg
RA of node: 066.1584 deg
Eccentricity: 0.0016973
Arg of perigee: 111.3393 deg
Mean anomaly: 248.9676 deg
Mean motion: 14.81536965 rev/day
Decay rate: 3.35e-06 rev/day^2
Epoch rev: 09043
Checksum: 348
Satellite: RS-30
Catalog number: 32953
Epoch time: 09364.74535546
Element set: 488
Inclination: 082.5022 deg
RA of node: 134.4184 deg
Eccentricity: 0.0019736
Arg of perigee: 109.9321 deg
Mean anomaly: 250.3887 deg
Mean motion: 12.43003216 rev/day
Decay rate: 1.0e-07 rev/day^2
Epoch rev: 7281
Checksum: 286
Satellite: TACSAT-3
Catalog number: 35001
Epoch time: 09364.85883741
Element set: 0193
Inclination: 040.4544 deg
RA of node: 143.7890 deg
Eccentricity: 0.0022442
Arg of perigee: 188.7667 deg
Mean anomaly: 171.2757 deg
Mean motion: 15.39882732 rev/day
Decay rate: 3.096e-05 rev/day^2
Epoch rev: 03466
Checksum: 325
Satellite: PHARMSAT
Catalog number: 35002
Epoch time: 09364.81459203
Element set: 172
Inclination: 040.4674 deg
RA of node: 142.7862 deg
Eccentricity: 0.0025404
Arg of perigee: 192.4719 deg
Mean anomaly: 167.5470 deg
Mean motion: 15.40582584 rev/day
Decay rate: 3.110e-05 rev/day^2
Epoch rev: 3466
Checksum: 281
Satellite: HAWKSAT1
Catalog number: 35003
Epoch time: 09364.76882664
Element set: 0190
Inclination: 040.4610 deg
RA of node: 141.3592 deg
Eccentricity: 0.0025013
Arg of perigee: 198.1058 deg
Mean anomaly: 161.8868 deg
Mean motion: 15.41908647 rev/day
Decay rate: 6.274e-05 rev/day^2
Epoch rev: 03468
Checksum: 305
Satellite: CP6
Catalog number: 35004
Epoch time: 09364.75791109
Element set: 172
Inclination: 040.4609 deg
RA of node: 141.2846 deg
Eccentricity: 0.0024204
Arg of perigee: 198.3134 deg
Mean anomaly: 161.6815 deg
Mean motion: 15.42149128 rev/day
Decay rate: 7.309e-05 rev/day^2
Epoch rev: 3467
Checksum: 291
Satellite: AEROCUB3
Catalog number: 35005
Epoch time: 09364.78683145
Element set: 178
Inclination: 040.4720 deg
RA of node: 141.7562 deg
Eccentricity: 0.0023853
Arg of perigee: 195.7055 deg
Mean anomaly: 164.3023 deg
Mean motion: 15.42121926 rev/day
Decay rate: 1.3122e-04 rev/day^2
Epoch rev: 3467
Checksum: 280
Satellite: DRAGNSAT
Catalog number: 35690
Epoch time: 09365.43509443
Element set: 163
Inclination: 051.6371 deg
RA of node: 001.0839 deg
Eccentricity: 0.0003544
Arg of perigee: 004.5183 deg
Mean anomaly: 355.5886 deg
Mean motion: 15.91903095 rev/day
Decay rate: 5.3127e-04 rev/day^2
Epoch rev: 2441
Checksum: 287
Satellite: POLLUX
Catalog number: 35693
Epoch time: 09365.33495068
Element set: 166
Inclination: 051.6382 deg
RA of node: 002.6913 deg
Eccentricity: 0.0000645
Arg of perigee: 357.5440 deg
Mean anomaly: 002.5183 deg
Mean motion: 15.90152568 rev/day
Decay rate: 4.9614e-04 rev/day^2
Epoch rev: 2435
Checksum: 295
Satellite: CASTOR
Catalog number: 35694
Epoch time: 09365.34632482
Element set: 145
Inclination: 051.6412 deg
RA of node: 005.0943 deg
Eccentricity: 0.0001792
Arg of perigee: 261.3449 deg
Mean anomaly: 098.7189 deg
Mean motion: 15.84793086 rev/day
Decay rate: 1.8984e-04 rev/day^2
Epoch rev: 2432
Checksum: 321
